sat.trackr.live / text

‹ back to catalog

STARLINK-31282

NORAD 59307 · 2024-056M

PAYLOAD ACTIVE UNKNOWN

§ Identity

Operator
Country
US
Launch date
2024-03-24
Launch site
AFETR
Launch vehicle
Mass (kg)
RCS (m²)

Purposes: comms

External: N2YO · Heavens-Above · Gunter

§ Orbital elements

Epoch: 2026-05-25T01:39:12.323232Z

Period
94.27 min
Inclination
42.9995°
Eccentricity
0.0001214
Mean motion
15.27569749 rev/d
Perigee alt
482.2 km
Apogee alt
483.9 km
Semi-major
6,861.2 km
B*
-2.0104e-5
RAAN
159.5204°
Arg perigee
278.5306°
Mean anomaly
81.5408°
Rev number
12,283

§ Raw data

STARLINK-312821 59307U 24056M   26145.06889263 -.00000815  00000+0 -20104-4 0  99972 59307  42.9995 159.5204 0001214 278.5306  81.5408 15.27569749122836

JSON: /api/v1/satellites/59307 · /tle

For live sub-satellite position, see the globe view (requires WebGL).

§ Visibility from observer

Set your observer location to see the next 7 days of passes ≥ 10°. The values pass through the URL so the page stays shareable.

No JS? Fill the form by hand. The geolocation button needs JavaScript.